CCM761E LFPO-LFKC

Flight info

Callsign CCM761E
Flight time 1h 19m
Altitude 37000
Route LATRA DCT LAMUT DCT UTUVA DCT TITVA DCT NOQAS DCT OTROT DCT RETNO DCT KOLON DCT NARTI UP991 NIRDO
Aircraft A320/M-SDE3FGHIRWY/LB1

Departure

Time 2026-05-06 17:07
Airport Paris-Orly Airport (LFPO)

Arrival

Time 2026-05-06 18:27
Airport Calvi Sainte Catherine Airport (LFKC)
Time Latitude Longitude Altitude Speed Heading
2026-05-06 16:47 48.72845 2.35652 291 ft 0 kts 65°
2026-05-06 17:00 48.72842 2.35640 291 ft 2 kts 65°
2026-05-06 17:01 48.72836 2.35620 291 ft 2 kts 65°
2026-05-06 17:01 48.72830 2.35599 291 ft 2 kts 66°
2026-05-06 17:01 48.72825 2.35580 291 ft 1 kts 43°
2026-05-06 17:01 48.72812 2.35574 291 ft 2 kts 343°
2026-05-06 17:02 48.72803 2.35580 291 ft 0 kts 340°
2026-05-06 17:02 48.72800 2.35581 291 ft 0 kts 343°
2026-05-06 17:04 48.72813 2.35575 291 ft 7 kts 342°
2026-05-06 17:04 48.72904 2.35535 291 ft 16 kts 347°
2026-05-06 17:04 48.73011 2.35561 291 ft 16 kts 39°
2026-05-06 17:05 48.73100 2.35592 291 ft 13 kts 326°
2026-05-06 17:05 48.73186 2.35623 291 ft 14 kts 46°
2026-05-06 17:05 48.73237 2.35753 291 ft 14 kts 61°
2026-05-06 17:05 48.73284 2.35894 291 ft 15 kts 62°
2026-05-06 17:06 48.73337 2.36035 291 ft 15 kts 52°
2026-05-06 17:06 48.73430 2.36104 291 ft 15 kts 357°
2026-05-06 17:06 48.73510 2.36015 291 ft 15 kts 279°
2026-05-06 17:06 48.73468 2.35846 291 ft 31 kts 242°
2026-05-06 17:07 48.73240 2.35205 291 ft 105 kts 242°
2026-05-06 17:07 48.72796 2.33960 333 ft 159 kts 244°
2026-05-06 17:07 48.72242 2.32409 833 ft 170 kts 245°
2026-05-06 17:07 48.71667 2.30883 1582 ft 171 kts 242°
2026-05-06 17:08 48.71036 2.29377 2229 ft 174 kts 242°
2026-05-06 17:08 48.70353 2.27773 2587 ft 189 kts 241°
2026-05-06 17:08 48.69604 2.26031 2938 ft 206 kts 240°
2026-05-06 17:08 48.68788 2.24127 3234 ft 228 kts 240°
2026-05-06 17:09 48.67892 2.22038 3661 ft 246 kts 239°
2026-05-06 17:09 48.66891 2.19807 4102 ft 265 kts 231°
2026-05-06 17:09 48.65344 2.18207 4635 ft 282 kts 196°
2026-05-06 17:09 48.63403 2.18184 5446 ft 283 kts 162°
2026-05-06 17:10 48.61675 2.19501 6287 ft 283 kts 147°
2026-05-06 17:10 48.59988 2.21051 7086 ft 286 kts 148°
2026-05-06 17:10 48.58292 2.22578 7879 ft 290 kts 149°
2026-05-06 17:10 48.56554 2.24107 8718 ft 293 kts 149°
2026-05-06 17:11 48.54786 2.25642 9501 ft 296 kts 150°
2026-05-06 17:11 48.52984 2.27193 10273 ft 300 kts 150°
2026-05-06 17:11 48.51134 2.28780 10814 ft 313 kts 150°
2026-05-06 17:11 48.49225 2.30397 11466 ft 319 kts 152°
2026-05-06 17:12 48.47228 2.31809 12214 ft 322 kts 158°
2026-05-06 17:12 48.45119 2.32948 12947 ft 324 kts 162°
2026-05-06 17:12 48.42956 2.33998 13645 ft 327 kts 163°
2026-05-06 17:12 48.40794 2.35030 14322 ft 330 kts 163°
2026-05-06 17:13 48.38590 2.36082 14994 ft 333 kts 162°
2026-05-06 17:13 48.36377 2.37143 15643 ft 336 kts 162°
2026-05-06 17:13 48.34165 2.38206 16271 ft 339 kts 162°
2026-05-06 17:13 48.31927 2.39284 16898 ft 342 kts 162°
2026-05-06 17:14 48.29656 2.40377 17516 ft 345 kts 162°
2026-05-06 17:14 48.27350 2.41517 18125 ft 347 kts 160°
2026-05-06 17:14 48.25088 2.42718 18703 ft 350 kts 160°
2026-05-06 17:14 48.22780 2.43963 19276 ft 353 kts 160°
2026-05-06 17:15 48.20469 2.45205 19848 ft 355 kts 160°
2026-05-06 17:15 48.18146 2.46447 20401 ft 358 kts 160°
2026-05-06 17:15 48.15808 2.47690 20952 ft 361 kts 160°
2026-05-06 17:15 48.13428 2.48951 21494 ft 363 kts 160°
2026-05-06 17:16 48.11048 2.50212 22018 ft 366 kts 160°
2026-05-06 17:16 48.08652 2.51479 22528 ft 369 kts 160°
2026-05-06 17:16 48.06241 2.52713 23021 ft 372 kts 161°
2026-05-06 17:16 48.03778 2.53928 23522 ft 375 kts 161°
2026-05-06 17:17 48.01305 2.55140 24027 ft 377 kts 161°
2026-05-06 17:17 47.98821 2.56358 24535 ft 378 kts 160°
2026-05-06 17:17 47.96307 2.57591 25031 ft 380 kts 160°
2026-05-06 17:17 47.93785 2.58830 25502 ft 382 kts 160°
2026-05-06 17:18 47.91274 2.60064 25954 ft 384 kts 160°
2026-05-06 17:18 47.88757 2.61299 26384 ft 386 kts 160°
2026-05-06 17:18 47.86151 2.62576 26821 ft 388 kts 160°
2026-05-06 17:18 47.83614 2.63819 27241 ft 390 kts 160°
2026-05-06 17:19 47.81005 2.65097 27649 ft 392 kts 161°
2026-05-06 17:19 47.78427 2.66358 28045 ft 394 kts 161°
2026-05-06 17:19 47.75844 2.67619 28425 ft 396 kts 161°
2026-05-06 17:19 47.73203 2.68909 28811 ft 397 kts 161°
2026-05-06 17:20 47.70591 2.70180 29172 ft 399 kts 161°
2026-05-06 17:20 47.67973 2.71454 29544 ft 400 kts 161°
2026-05-06 17:20 47.65323 2.72744 29906 ft 402 kts 161°
2026-05-06 17:20 47.62675 2.74029 30246 ft 404 kts 161°
2026-05-06 17:21 47.59982 2.75333 30585 ft 405 kts 161°
2026-05-06 17:21 47.57311 2.76627 30900 ft 407 kts 161°
2026-05-06 17:21 47.54607 2.77936 31219 ft 409 kts 160°
2026-05-06 17:21 47.51915 2.79238 31457 ft 410 kts 161°
2026-05-06 17:22 47.49213 2.80547 31668 ft 413 kts 161°
2026-05-06 17:22 47.46459 2.81875 31879 ft 415 kts 161°
2026-05-06 17:22 47.43739 2.83186 32090 ft 416 kts 161°
2026-05-06 17:22 47.40972 2.84520 32257 ft 418 kts 161°
2026-05-06 17:23 47.38207 2.85848 32410 ft 421 kts 161°
2026-05-06 17:23 47.35428 2.87184 32572 ft 423 kts 161°
2026-05-06 17:23 47.32653 2.88516 32716 ft 425 kts 161°
2026-05-06 17:23 47.29843 2.89863 32858 ft 427 kts 161°
2026-05-06 17:24 47.27015 2.91217 32998 ft 429 kts 161°
2026-05-06 17:24 47.24176 2.92575 33132 ft 431 kts 161°
2026-05-06 17:24 47.21296 2.93949 33266 ft 433 kts 161°
2026-05-06 17:24 47.18431 2.95316 33407 ft 435 kts 161°
2026-05-06 17:25 47.15586 2.96672 33550 ft 436 kts 162°
2026-05-06 17:25 47.12689 2.98051 33681 ft 438 kts 162°
2026-05-06 17:25 47.09741 2.99323 33803 ft 439 kts 165°
2026-05-06 17:25 47.06804 3.00536 33926 ft 441 kts 165°
2026-05-06 17:26 47.03852 3.01756 34073 ft 442 kts 165°
2026-05-06 17:26 47.00901 3.02974 34194 ft 443 kts 165°
2026-05-06 17:26 46.97961 3.04183 34378 ft 443 kts 165°
2026-05-06 17:26 46.95007 3.05397 34587 ft 442 kts 165°
2026-05-06 17:27 46.92058 3.06606 34808 ft 441 kts 165°
2026-05-06 17:27 46.89114 3.07813 35018 ft 441 kts 165°
2026-05-06 17:27 46.86133 3.09034 35207 ft 441 kts 165°
2026-05-06 17:27 46.83199 3.10234 35363 ft 441 kts 165°
2026-05-06 17:28 46.80252 3.11438 35509 ft 442 kts 165°
2026-05-06 17:28 46.77306 3.12639 35652 ft 443 kts 165°
2026-05-06 17:28 46.74324 3.13856 35796 ft 443 kts 165°
2026-05-06 17:28 46.71366 3.15061 35941 ft 443 kts 166°
2026-05-06 17:29 46.68409 3.16262 36082 ft 444 kts 166°
2026-05-06 17:29 46.65456 3.17462 36210 ft 444 kts 166°
2026-05-06 17:29 46.62477 3.18669 36321 ft 445 kts 166°
2026-05-06 17:29 46.59513 3.19870 36426 ft 445 kts 166°
2026-05-06 17:30 46.56505 3.21086 36521 ft 446 kts 166°
2026-05-06 17:30 46.50523 3.23503 36699 ft 448 kts 166°
2026-05-06 17:31 46.44552 3.25911 36877 ft 449 kts 166°
2026-05-06 17:31 46.38508 3.28341 36916 ft 451 kts 166°
2026-05-06 17:32 46.32475 3.30762 36923 ft 450 kts 166°
2026-05-06 17:32 46.26477 3.33162 36925 ft 450 kts 166°
2026-05-06 17:33 46.20449 3.35571 36924 ft 450 kts 166°
2026-05-06 17:33 46.14439 3.37965 36925 ft 450 kts 166°
2026-05-06 17:34 46.08381 3.40372 36927 ft 450 kts 166°
2026-05-06 17:34 46.02391 3.42748 36930 ft 449 kts 166°
2026-05-06 17:35 45.96368 3.45130 36932 ft 450 kts 166°
2026-05-06 17:35 45.90384 3.47778 36930 ft 451 kts 161°
2026-05-06 17:36 45.81858 3.53462 36931 ft 454 kts 152°
2026-05-06 17:36 45.76550 3.58295 36927 ft 455 kts 148°
2026-05-06 17:37 45.71248 3.63292 36922 ft 454 kts 148°
2026-05-06 17:37 45.66002 3.68218 36917 ft 454 kts 149°
2026-05-06 17:38 45.60704 3.73179 36918 ft 454 kts 149°
2026-05-06 17:38 45.55461 3.78077 36924 ft 454 kts 149°
2026-05-06 17:39 45.50195 3.82984 36926 ft 454 kts 149°
2026-05-06 17:39 45.44908 3.87898 36920 ft 454 kts 150°
2026-05-06 17:40 45.39835 3.93131 36918 ft 456 kts 143°
2026-05-06 17:40 45.35161 3.99268 36925 ft 458 kts 136°
2026-05-06 17:41 45.31053 4.06140 36929 ft 461 kts 129°
2026-05-06 17:41 45.27284 4.13535 36934 ft 462 kts 129°
2026-05-06 17:42 45.23544 4.20877 36931 ft 462 kts 129°
2026-05-06 17:42 45.19787 4.28206 36928 ft 462 kts 129°
2026-05-06 17:43 45.15992 4.35576 36922 ft 462 kts 129°
2026-05-06 17:43 45.12219 4.42863 36925 ft 462 kts 130°
2026-05-06 17:44 45.08158 4.49804 36928 ft 459 kts 134°
2026-05-06 17:44 45.03993 4.56611 36930 ft 459 kts 134°
2026-05-06 17:45 44.99795 4.63449 36929 ft 459 kts 134°
2026-05-06 17:45 44.95636 4.70215 36928 ft 459 kts 135°
2026-05-06 17:46 44.91458 4.76994 36918 ft 459 kts 135°
2026-05-06 17:46 44.87278 4.83760 36919 ft 459 kts 135°
2026-05-06 17:47 44.83080 4.90540 36921 ft 458 kts 135°
2026-05-06 17:47 44.78902 4.97274 36924 ft 458 kts 136°
2026-05-06 17:48 44.74717 5.04001 36919 ft 459 kts 136°
2026-05-06 17:48 44.70538 5.10702 36918 ft 458 kts 136°
2026-05-06 17:49 44.66322 5.17444 36927 ft 458 kts 136°
2026-05-06 17:49 44.62121 5.24150 36923 ft 459 kts 136°
2026-05-06 17:50 44.57920 5.30838 36921 ft 459 kts 136°
2026-05-06 17:50 44.53705 5.37533 36925 ft 458 kts 136°
2026-05-06 17:51 44.49490 5.44210 36936 ft 459 kts 136°
2026-05-06 17:51 44.45290 5.50849 36939 ft 458 kts 136°
2026-05-06 17:52 44.41066 5.57502 36940 ft 458 kts 136°
2026-05-06 17:52 44.37015 5.64421 36946 ft 463 kts 130°
2026-05-06 17:53 44.33391 5.71810 36960 ft 463 kts 129°
2026-05-06 17:53 44.29784 5.79253 36907 ft 465 kts 129°
2026-05-06 17:54 44.26161 5.86701 36951 ft 466 kts 130°
2026-05-06 17:54 44.22527 5.94145 36940 ft 466 kts 130°
2026-05-06 17:55 44.18879 6.01596 36953 ft 465 kts 130°
2026-05-06 17:55 44.15228 6.09037 36939 ft 465 kts 130°
2026-05-06 17:56 44.11583 6.16444 36938 ft 465 kts 130°
2026-05-06 17:56 44.07931 6.23846 36929 ft 465 kts 130°
2026-05-06 17:57 44.04268 6.31245 36928 ft 466 kts 130°
2026-05-06 17:57 44.00610 6.38620 36920 ft 465 kts 130°
2026-05-06 17:58 43.96952 6.45977 36917 ft 465 kts 130°
2026-05-06 17:58 43.93291 6.53322 36919 ft 466 kts 130°
2026-05-06 17:59 43.89621 6.60669 36927 ft 466 kts 130°
2026-05-06 17:59 43.85936 6.68027 36920 ft 466 kts 131°
2026-05-06 18:00 43.82219 6.75428 36921 ft 464 kts 131°
2026-05-06 18:00 43.78531 6.82753 36915 ft 464 kts 131°
2026-05-06 18:01 43.74840 6.90057 36910 ft 464 kts 131°
2026-05-06 18:01 43.73014 6.93657 36712 ft 454 kts 133°
2026-05-06 18:01 43.71102 6.97091 35850 ft 449 kts 137°
2026-05-06 18:02 43.69098 7.00350 34923 ft 453 kts 139°
2026-05-06 18:02 43.67048 7.03625 33961 ft 448 kts 139°
2026-05-06 18:02 43.65029 7.06844 33048 ft 438 kts 140°
2026-05-06 18:02 43.63067 7.09975 32205 ft 428 kts 140°
2026-05-06 18:03 43.61159 7.13020 31285 ft 421 kts 140°
2026-05-06 18:03 43.59269 7.16035 30354 ft 414 kts 140°
2026-05-06 18:03 43.57411 7.18995 29371 ft 408 kts 140°
2026-05-06 18:03 43.55671 7.22046 28398 ft 409 kts 134°
2026-05-06 18:04 43.54176 7.25370 27517 ft 415 kts 127°
2026-05-06 18:04 43.52906 7.28956 26976 ft 415 kts 123°
2026-05-06 18:04 43.51729 7.32548 26527 ft 411 kts 122°
2026-05-06 18:04 43.50580 7.36094 26069 ft 406 kts 122°
2026-05-06 18:05 43.49431 7.39621 25586 ft 403 kts 122°
2026-05-06 18:05 43.48291 7.43102 25072 ft 400 kts 122°
2026-05-06 18:05 43.47141 7.46601 24551 ft 397 kts 122°
2026-05-06 18:05 43.46016 7.50009 24068 ft 394 kts 122°
2026-05-06 18:06 43.44886 7.53428 23592 ft 391 kts 122°
2026-05-06 18:06 43.43763 7.56813 23124 ft 388 kts 122°
2026-05-06 18:06 43.42646 7.60176 22666 ft 385 kts 122°
2026-05-06 18:06 43.41536 7.63514 22203 ft 383 kts 121°
2026-05-06 18:07 43.40442 7.66804 21730 ft 378 kts 122°
2026-05-06 18:07 43.39355 7.70069 21053 ft 374 kts 122°
2026-05-06 18:07 43.38288 7.73267 20280 ft 371 kts 121°
2026-05-06 18:07 43.37225 7.76448 19516 ft 367 kts 121°
2026-05-06 18:08 43.36164 7.79622 18758 ft 364 kts 121°
2026-05-06 18:08 43.35116 7.82748 18004 ft 361 kts 121°
2026-05-06 18:08 43.34074 7.85853 17290 ft 357 kts 120°
2026-05-06 18:08 43.33046 7.88913 16604 ft 352 kts 120°
2026-05-06 18:09 43.32031 7.91936 15922 ft 348 kts 119°
2026-05-06 18:09 43.31031 7.94914 15241 ft 344 kts 119°
2026-05-06 18:09 43.30047 7.97839 14588 ft 339 kts 119°
2026-05-06 18:09 43.29060 8.00769 13918 ft 335 kts 118°
2026-05-06 18:10 43.28104 8.03604 13260 ft 330 kts 118°
2026-05-06 18:10 43.27145 8.06450 12584 ft 327 kts 118°
2026-05-06 18:10 43.26201 8.09242 11885 ft 324 kts 118°
2026-05-06 18:10 43.25264 8.12009 11193 ft 321 kts 118°
2026-05-06 18:11 43.24320 8.14796 10619 ft 321 kts 117°
2026-05-06 18:11 43.23701 8.16621 10445 ft 316 kts 117°
2026-05-06 18:11 43.22493 8.20189 10158 ft 304 kts 118°
2026-05-06 18:11 43.21609 8.22795 9816 ft 302 kts 117°
2026-05-06 18:12 43.20719 8.25406 9441 ft 300 kts 117°
2026-05-06 18:12 43.19846 8.27970 9072 ft 299 kts 117°
2026-05-06 18:12 43.18977 8.30520 8714 ft 297 kts 117°
2026-05-06 18:12 43.18104 8.33074 8366 ft 295 kts 117°
2026-05-06 18:13 43.17244 8.35594 8024 ft 292 kts 117°
2026-05-06 18:13 43.16379 8.38124 7666 ft 291 kts 117°
2026-05-06 18:13 43.15531 8.40607 7309 ft 289 kts 118°
2026-05-06 18:13 43.14612 8.43033 6952 ft 286 kts 123°
2026-05-06 18:14 43.13558 8.45324 6601 ft 283 kts 128°
2026-05-06 18:14 43.12415 8.47481 6252 ft 281 kts 129°
2026-05-06 18:14 43.11259 8.49625 5906 ft 279 kts 130°
2026-05-06 18:14 43.10107 8.51753 5557 ft 278 kts 130°
2026-05-06 18:15 43.08975 8.53849 5215 ft 276 kts 130°
2026-05-06 18:15 43.07835 8.55962 4861 ft 275 kts 130°
2026-05-06 18:15 43.06699 8.58067 4515 ft 273 kts 130°
2026-05-06 18:15 43.05576 8.60147 4173 ft 272 kts 130°
2026-05-06 18:16 43.04459 8.62214 3823 ft 271 kts 130°
2026-05-06 18:16 43.03350 8.64265 3470 ft 270 kts 130°
2026-05-06 18:16 43.02243 8.66319 3129 ft 269 kts 131°
2026-05-06 18:16 43.01136 8.68368 2985 ft 266 kts 131°
2026-05-06 18:17 43.00029 8.70408 2981 ft 268 kts 131°
2026-05-06 18:17 42.98924 8.72444 2980 ft 268 kts 131°
2026-05-06 18:17 42.97799 8.74517 2981 ft 269 kts 130°
2026-05-06 18:17 42.96691 8.76558 2980 ft 269 kts 130°
2026-05-06 18:18 42.95435 8.78414 2967 ft 262 kts 152°
2026-05-06 18:18 42.93776 8.79224 2976 ft 250 kts 179°
2026-05-06 18:18 42.92110 8.79246 2979 ft 233 kts 185°
2026-05-06 18:18 42.90525 8.79226 2973 ft 218 kts 185°
2026-05-06 18:19 42.89079 8.79219 2967 ft 203 kts 185°
2026-05-06 18:19 42.87700 8.79215 2964 ft 188 kts 185°
2026-05-06 18:19 42.86430 8.79210 2970 ft 179 kts 186°
2026-05-06 18:19 42.85171 8.79199 3078 ft 186 kts 185°
2026-05-06 18:20 42.83843 8.79187 3040 ft 193 kts 185°
2026-05-06 18:20 42.82492 8.79181 3017 ft 194 kts 185°
2026-05-06 18:20 42.81132 8.79180 3007 ft 195 kts 185°
2026-05-06 18:20 42.79777 8.79180 3004 ft 196 kts 185°
2026-05-06 18:21 42.78417 8.79180 3004 ft 196 kts 185°
2026-05-06 18:21 42.77044 8.79179 3003 ft 197 kts 184°
2026-05-06 18:21 42.75674 8.79186 3005 ft 196 kts 184°
2026-05-06 18:21 42.74321 8.79194 3004 ft 196 kts 184°
2026-05-06 18:22 42.72962 8.79201 3003 ft 194 kts 184°
2026-05-06 18:22 42.71603 8.79208 2999 ft 195 kts 185°
2026-05-06 18:22 42.70259 8.79214 2991 ft 188 kts 185°
2026-05-06 18:22 42.69020 8.79225 2870 ft 168 kts 185°
2026-05-06 18:23 42.67902 8.79237 2715 ft 150 kts 185°
2026-05-06 18:23 42.66903 8.79245 2512 ft 136 kts 186°
2026-05-06 18:23 42.65971 8.79246 2359 ft 134 kts 186°
2026-05-06 18:23 42.65039 8.79243 2194 ft 133 kts 186°
2026-05-06 18:24 42.64111 8.79243 2021 ft 133 kts 186°
2026-05-06 18:24 42.63193 8.79245 1852 ft 132 kts 186°
2026-05-06 18:24 42.62270 8.79246 1678 ft 132 kts 186°
2026-05-06 18:24 42.61344 8.79240 1509 ft 133 kts 184°
2026-05-06 18:25 42.60415 8.79281 1305 ft 133 kts 185°
2026-05-06 18:25 42.59484 8.79297 1086 ft 133 kts 186°
2026-05-06 18:25 42.58564 8.79290 882 ft 132 kts 184°
2026-05-06 18:25 42.57653 8.79276 785 ft 131 kts 185°
2026-05-06 18:26 42.56744 8.79301 631 ft 131 kts 184°
2026-05-06 18:26 42.55839 8.79292 468 ft 128 kts 184°
2026-05-06 18:26 42.54946 8.79296 344 ft 129 kts 184°
2026-05-06 18:26 42.54060 8.79301 154 ft 126 kts 184°
2026-05-06 18:27 42.53239 8.79297 147 ft 86 kts 180°
2026-05-06 18:27 42.52923 8.79300 168 ft 20 kts 186°
2026-05-06 18:27 42.52764 8.79301 177 ft 20 kts 181°
2026-05-06 18:27 42.52638 8.79299 185 ft 16 kts 180°
2026-05-06 18:28 42.52537 8.79298 190 ft 12 kts 180°
2026-05-06 18:28 42.52462 8.79296 194 ft 9 kts 189°
2026-05-06 18:28 42.52435 8.79227 195 ft 9 kts 270°
2026-05-06 18:28 42.52435 8.79190 194 ft 0 kts 270°
2026-05-06 18:29 42.52435 8.79183 194 ft 2 kts 282°
2026-05-06 18:30 42.52456 8.79164 193 ft 6 kts 349°
2026-05-06 18:30 42.52469 8.79161 193 ft 0 kts 349°
2026-05-06 18:30 42.52481 8.79155 192 ft 5 kts 333°
2026-05-06 18:30 42.52511 8.79099 190 ft 4 kts 300°
2026-05-06 18:31 42.52512 8.79094 190 ft 0 kts 300°
2026-05-06 18:31 42.52513 8.79091 190 ft 0 kts 299°